Weather History for KHFD - May, 2013

Change the Weather History Date:

Thursday, May 30, 2013

  Actual Average Record
Temperature  
Mean Temperature 76 °F -  
Max Temperature 93 °F 75 °F 93 °F (2013)
Min Temperature 60 °F 53 °F 37 °F (1949)
Cooling Degree Days 10    
Growing Degree Days 26 (Base 50)    
Moisture  
Dew Point 65 °F    
Average Humidity 76    
Maximum Humidity 100    
Minimum Humidity 37    
Precipitation  
Precipitation 0.01 in - - ()
Sea Level Pressure  
Sea Level Pressure 30.06 in    
Wind  
Wind Speed 2 mph (SSW)    
Max Wind Speed 10 mph    
Max Gust Speed 17 mph    
Visibility 8 miles    
Events Fog , Thunderstorm    
Averages and records for this station are not official NWS values.
T = Trace of Precipitation, MM = Missing Value Source: NWS Daily Summary

Daily Weather History Graph

Daily Weather History Graph

Search for Another Location

Airport or City:

Trip Planner

Search our weather history database for the weather conditions in past years. The results will help you decide how hot, cold, wet, or windy it might be!

Date:

Astronomy

May. 30, 2013 Rise Set
Actual Time 5:19 AM EDT 8:17 PM EDT
Civil Twilight 4:46 AM EDT 8:50 PM EDT
Nautical Twilight 4:03 AM EDT 9:33 PM EDT
Astronomical Twilight 3:14 AM EDT 10:22 PM EDT
Moon 12:13 AM EDT (5/30) 11:27 AM EDT (5/30)
Length of Visible Light 16h 04m
Length of Day
14h 58m
Waning Gibbous, 62% of the Moon is Illuminated
May 30
Waning Gibbous
May 31
Last Quarter
Jun 8
New
Jun 16
First Quarter
Jun 23
Full

Hourly Weather History & Observations

Time (EDT) Temp. Heat Index Dew Point Humidity Pressure Visibility Wind Dir Wind Speed Gust Speed Precip Events Conditions
12:15 AM 66.2 °F - 64.4 °F 94% 30.05 in 10.0 mi Calm Calm - 0.01 in   Mostly Cloudy
12:53 AM 66.0 °F - 64.9 °F 96% 30.06 in 10.0 mi Calm Calm - 0.01 in   Mostly Cloudy
1:53 AM 64.9 °F - 64.0 °F 97% 30.06 in 9.0 mi Calm Calm - N/A   Partly Cloudy
2:51 AM 62.6 °F - 62.6 °F 100% 30.06 in 1.8 mi SSE 3.5 mph - N/A   Clear
2:53 AM 63.0 °F - 62.1 °F 97% 30.06 in 1.8 mi South 3.5 mph - N/A   Clear
2:59 AM 62.6 °F - 62.6 °F 100% 30.06 in 3.0 mi South 3.5 mph - N/A   Clear
3:53 AM 64.0 °F - 63.0 °F 96% 30.06 in 8.0 mi Calm Calm - N/A   Clear
4:29 AM 62.6 °F - 62.6 °F 100% 30.06 in 1.8 mi Calm Calm - N/A   Clear
4:42 AM 62.6 °F - 60.8 °F 94% 30.06 in 0.5 mi Calm Calm - N/A Fog Fog
4:53 AM 62.1 °F - 61.0 °F 96% 30.06 in 0.5 mi Calm Calm - N/A Fog Fog
5:38 AM 62.6 °F - 60.8 °F 94% 30.07 in 1.2 mi Calm Calm - N/A   Partly Cloudy
5:53 AM 61.0 °F - 61.0 °F 100% 30.08 in 1.5 mi SSE 3.5 mph - N/A   Clear
6:03 AM 60.8 °F - 60.8 °F 100% 30.08 in 5.0 mi Calm Calm - N/A   Partly Cloudy
6:53 AM 64.0 °F - 64.0 °F 100% 30.09 in 5.0 mi Calm Calm - N/A   Clear
7:53 AM 66.9 °F - 64.9 °F 93% 30.10 in 10.0 mi Calm Calm - N/A   Clear
8:53 AM 72.0 °F - 66.9 °F 84% 30.11 in 10.0 mi Calm Calm - N/A   Clear
9:53 AM 75.9 °F - 68.0 °F 76% 30.10 in 10.0 mi Calm Calm - N/A   Clear
10:53 AM 80.1 °F 82.9 °F 69.1 °F 69% 30.10 in 10.0 mi South 3.5 mph - N/A   Clear
11:53 AM 82.9 °F 87.5 °F 71.1 °F 67% 30.09 in 10.0 mi SE 4.6 mph - N/A   Clear
12:53 PM 86.0 °F 90.7 °F 70.0 °F 59% 30.08 in 10.0 mi Variable 3.5 mph - N/A   Clear
1:53 PM 90.0 °F 90.6 °F 63.0 °F 40% 30.06 in 10.0 mi WSW 5.8 mph - N/A   Partly Cloudy
2:53 PM 91.0 °F 91.9 °F 63.0 °F 39% 30.05 in 10.0 mi West 6.9 mph 16.1 mph N/A   Partly Cloudy
3:53 PM 91.9 °F 92.5 °F 62.1 °F 37% 30.03 in 10.0 mi Variable 4.6 mph - N/A   Partly Cloudy
4:53 PM 91.9 °F 92.9 °F 63.0 °F 38% 30.02 in 10.0 mi West 9.2 mph 17.3 mph N/A   Clear
5:53 PM 91.0 °F 92.6 °F 64.0 °F 41% 30.01 in 10.0 mi WSW 10.4 mph - N/A   Clear
6:53 PM 90.0 °F 91.7 °F 64.9 °F 43% 30.02 in 10.0 mi WSW 4.6 mph - N/A   Scattered Clouds
7:53 PM 82.9 °F 85.4 °F 66.9 °F 58% 30.03 in 10.0 mi South 8.1 mph - N/A   Partly Cloudy
8:07 PM 84.2 °F 86.6 °F 66.2 °F 55% 30.03 in 10.0 mi SSW 3.5 mph - N/A Thunderstorm Thunderstorm
8:38 PM 80.6 °F 82.7 °F 66.2 °F 61% 30.05 in 10.0 mi East 3.5 mph - N/A Thunderstorm Overcast
8:53 PM 81.0 °F 83.3 °F 66.9 °F 62% 30.05 in 10.0 mi SSE 3.5 mph - N/A Thunderstorm Overcast
9:11 PM 78.8 °F - 66.2 °F 65% 30.05 in 10.0 mi Calm Calm - N/A   Mostly Cloudy
9:53 PM 75.9 °F - 68.0 °F 76% 30.05 in 10.0 mi Calm Calm - N/A   Clear
10:53 PM 73.9 °F - 68.0 °F 82% 30.06 in 10.0 mi Calm Calm - N/A   Clear
11:53 PM 73.9 °F - 66.0 °F 76% 30.07 in 10.0 mi Calm Calm - N/A   Clear